User: anonymous   Login
Location: Boiro
(42.6475°N, 8.8834°W)
Time: 05:52:45
(UTC+01:00)
Language:

EO-88 - Orbit

View from above orbital plane
View from above orbital plane
View from above satellite
View from above satellite

Ground track
Ground track

The orbit data is extracted from the following two-line orbital elements,

1 42017U 17008BX  22024.69379550  .00005745  00000-0  19870-3 0  9993
2 42017  97.2901  93.2523 0006747  52.4028 307.7825 15.30261514275063
Epoch (UTC): 24 January 2022 16:39:03
Eccentricity: 0.0006747
inclination: 97.2901°
perigee height: 470 km
apogee height: 479 km
right ascension of ascending node: 93.2523°
argument of perigee: 52.4028°
revolutions per day: 15.30261514
mean anomaly at epoch: 307.7825°
orbit number at epoch: 27506

The dashed part of the orbit path shows where the satellite is in the earth's shadow,  

DLR